Time,TemperatureF,DewpointF,PressureIn,WindDirection,WindDirectionDegrees,WindSpeedMPH,WindSpeedGustMPH,Humidity,HourlyPrecipIn,Conditions,Clouds,dailyrainin,SoftwareType,DateUTC
2013-03-30 00:02:00,37.0,34.0,30.13,WNW,288,0.0,-999.0,88,-99.99,,,-99.99,,2013-03-30 07:02:00,
2013-03-30 00:12:00,37.0,34.0,30.13,WNW,288,0.0,-999.0,88,-99.99,,,-99.99,,2013-03-30 07:12:00,
2013-03-30 00:22:00,37.0,34.0,30.13,WNW,288,0.0,-999.0,88,-99.99,,,-99.99,,2013-03-30 07:22:00,
2013-03-30 00:32:00,36.0,33.0,30.14,WNW,288,0.0,-999.0,88,-99.99,,,-99.99,,2013-03-30 07:32:00,
2013-03-30 00:42:00,36.0,33.0,30.14,WNW,288,0.0,-999.0,88,-99.99,,,-99.99,,2013-03-30 07:42:00,
2013-03-30 00:52:00,35.0,32.0,30.13,WNW,288,0.0,-999.0,89,-99.99,,,-99.99,,2013-03-30 07:52:00,
2013-03-30 01:01:00,35.0,32.0,30.14,WNW,288,0.0,-999.0,89,-99.99,,,-99.99,,2013-03-30 08:01:00,
2013-03-30 01:12:00,35.0,32.0,30.14,WNW,288,0.0,-999.0,89,-99.99,,,-99.99,,2013-03-30 08:12:00,
2013-03-30 01:21:00,35.0,32.0,30.14,WNW,288,0.0,-999.0,90,-99.99,,,-99.99,,2013-03-30 08:21:00,
2013-03-30 01:32:00,34.0,31.0,30.14,WNW,288,0.0,-999.0,88,-99.99,,,-99.99,,2013-03-30 08:32:00,
2013-03-30 01:52:00,34.0,31.0,30.15,WNW,288,0.0,-999.0,89,-99.99,,,-99.99,,2013-03-30 08:52:00,
2013-03-30 02:01:00,34.0,31.0,30.15,WNW,288,0.0,-999.0,89,-99.99,,,-99.99,,2013-03-30 09:01:00,
2013-03-30 02:12:00,33.0,30.0,30.15,WNW,288,0.0,-999.0,90,-99.99,,,-99.99,,2013-03-30 09:12:00,
2013-03-30 02:22:00,33.0,30.0,30.15,WNW,288,0.0,-999.0,90,-99.99,,,-99.99,,2013-03-30 09:22:00,
2013-03-30 02:33:00,34.0,31.0,30.15,WNW,301,0.0,-999.0,90,-99.99,,,-99.99,,2013-03-30 09:33:00,
2013-03-30 02:42:00,34.0,31.0,30.15,WNW,301,0.0,-999.0,90,-99.99,,,-99.99,,2013-03-30 09:42:00,
2013-03-30 02:52:00,33.0,30.0,30.15,WNW,300,0.0,-999.0,90,-99.99,,,-99.99,,2013-03-30 09:52:00,
2013-03-30 03:02:00,32.0,29.0,30.14,WNW,301,0.0,-999.0,90,-99.99,,,-99.99,,2013-03-30 10:02:00,
2013-03-30 03:12:00,32.0,29.0,30.14,WNW,301,0.0,-999.0,90,-99.99,,,-99.99,,2013-03-30 10:12:00,
2013-03-30 03:22:00,32.0,29.0,30.14,WNW,301,0.0,-999.0,90,-99.99,,,-99.99,,2013-03-30 10:22:00,
2013-03-30 03:32:00,32.0,29.0,30.14,WNW,301,0.0,-999.0,89,-99.99,,,-99.99,,2013-03-30 10:32:00,
2013-03-30 03:52:00,32.0,29.0,30.15,WNW,301,0.0,-999.0,89,-99.99,,,-99.99,,2013-03-30 10:52:00,
2013-03-30 04:02:00,32.0,29.0,30.15,WNW,301,0.0,-999.0,90,-99.99,,,-99.99,,2013-03-30 11:02:00,
2013-03-30 04:12:00,32.0,29.0,30.15,WNW,301,0.0,-999.0,90,-99.99,,,-99.99,,2013-03-30 11:12:00,
2013-03-30 04:22:00,32.0,29.0,30.15,WNW,301,0.0,-999.0,90,-99.99,,,-99.99,,2013-03-30 11:22:00,
2013-03-30 04:32:00,32.0,29.0,30.14,WNW,301,0.0,-999.0,90,-99.99,,,-99.99,,2013-03-30 11:32:00,
2013-03-30 04:42:00,32.0,29.0,30.14,WNW,301,0.0,-999.0,90,-99.99,,,-99.99,,2013-03-30 11:42:00,
2013-03-30 04:52:00,31.0,28.0,30.14,WNW,301,0.0,-999.0,90,-99.99,,,-99.99,,2013-03-30 11:52:00,
2013-03-30 05:02:00,31.0,28.0,30.14,WNW,301,0.0,-999.0,90,-99.99,,,-99.99,,2013-03-30 12:02:00,
2013-03-30 05:12:00,31.0,28.0,30.14,WNW,301,0.0,-999.0,90,-99.99,,,-99.99,,2013-03-30 12:12:00,
2013-03-30 05:22:00,31.0,28.0,30.14,WNW,301,0.0,-999.0,90,-99.99,,,-99.99,,2013-03-30 12:22:00,
2013-03-30 05:32:00,31.0,28.0,30.14,WNW,301,0.0,-999.0,89,-99.99,,,-99.99,,2013-03-30 12:32:00,
2013-03-30 05:42:00,31.0,28.0,30.14,WNW,301,0.0,-999.0,89,-99.99,,,-99.99,,2013-03-30 12:42:00,
2013-03-30 05:52:00,30.0,27.0,30.14,WNW,300,0.0,-999.0,89,-99.99,,,-99.99,,2013-03-30 12:52:00,
2013-03-30 06:02:00,30.0,27.0,30.15,WNW,301,0.0,-999.0,90,-99.99,,,-99.99,,2013-03-30 13:02:00,
2013-03-30 06:12:00,30.0,27.0,30.15,WNW,301,0.0,-999.0,90,-99.99,,,-99.99,,2013-03-30 13:12:00,
2013-03-30 06:22:00,30.0,27.0,30.15,WNW,301,0.0,-999.0,90,-99.99,,,-99.99,,2013-03-30 13:22:00,
2013-03-30 06:32:00,30.0,27.0,30.15,WNW,301,0.0,-999.0,90,-99.99,,,-99.99,,2013-03-30 13:32:00,
2013-03-30 06:42:00,30.0,27.0,30.15,WNW,301,0.0,-999.0,90,-99.99,,,-99.99,,2013-03-30 13:42:00,
2013-03-30 06:52:00,30.0,27.0,30.16,WNW,301,0.0,-999.0,90,-99.99,,,-99.99,,2013-03-30 13:52:00,
2013-03-30 07:02:00,30.0,27.0,30.14,WNW,301,0.0,-999.0,90,-99.99,,,-99.99,,2013-03-30 14:02:00,
2013-03-30 07:11:00,30.0,27.0,30.14,WNW,301,0.0,-999.0,90,-99.99,,,-99.99,,2013-03-30 14:11:00,
2013-03-30 07:22:00,30.0,27.0,30.14,WNW,301,0.0,-999.0,90,-99.99,,,-99.99,,2013-03-30 14:22:00,
2013-03-30 07:32:00,30.0,27.0,30.14,WNW,301,0.0,-999.0,90,-99.99,,,-99.99,,2013-03-30 14:32:00,
2013-03-30 07:42:00,30.0,27.0,30.14,WNW,301,0.0,-999.0,90,-99.99,,,-99.99,,2013-03-30 14:42:00,
2013-03-30 07:52:00,30.0,27.0,30.16,WNW,301,0.0,-999.0,90,-99.99,,,-99.99,,2013-03-30 14:52:00,
2013-03-30 08:02:00,30.0,27.0,30.16,WNW,301,0.0,-999.0,90,-99.99,,,-99.99,,2013-03-30 15:02:00,
2013-03-30 08:12:00,30.0,27.0,30.16,WNW,301,0.0,-999.0,90,-99.99,,,-99.99,,2013-03-30 15:12:00,
2013-03-30 08:22:00,30.0,28.0,30.16,WNW,300,0.0,-999.0,91,-99.99,,,-99.99,,2013-03-30 15:22:00,
2013-03-30 08:33:00,32.0,30.0,30.16,WNW,300,0.0,-999.0,91,-99.99,,,-99.99,,2013-03-30 15:33:00,
2013-03-30 08:42:00,32.0,30.0,30.16,WNW,300,0.0,-999.0,91,-99.99,,,-99.99,,2013-03-30 15:42:00,
2013-03-30 08:52:00,32.0,29.0,30.18,WNW,301,0.0,-999.0,90,-99.99,,,-99.99,,2013-03-30 15:52:00,
2013-03-30 09:03:00,34.0,32.0,30.18,WNW,301,0.0,-999.0,92,-99.99,,,-99.99,,2013-03-30 16:03:00,
2013-03-30 09:12:00,37.0,35.0,30.17,WNW,301,0.0,-999.0,93,-99.99,,,-99.99,,2013-03-30 16:12:00,
2013-03-30 09:22:00,37.0,35.0,30.17,WNW,301,0.0,-999.0,93,-99.99,,,-99.99,,2013-03-30 16:22:00,
2013-03-30 09:32:00,40.0,38.0,30.16,WNW,301,0.0,-999.0,93,-99.99,,,-99.99,,2013-03-30 16:32:00,
2013-03-30 09:42:00,40.0,38.0,30.16,WNW,301,0.0,-999.0,93,-99.99,,,-99.99,,2013-03-30 16:42:00,
2013-03-30 09:52:00,42.0,40.0,30.16,WNW,301,0.0,-999.0,91,-99.99,,,-99.99,,2013-03-30 16:52:00,
2013-03-30 10:02:00,44.0,39.0,30.16,WNW,301,0.0,-999.0,82,-99.99,,,-99.99,,2013-03-30 17:02:00,
2013-03-30 10:12:00,44.0,39.0,30.16,WNW,301,0.0,-999.0,82,-99.99,,,-99.99,,2013-03-30 17:12:00,
2013-03-30 10:22:00,44.0,39.0,30.16,WNW,301,0.0,-999.0,82,-99.99,,,-99.99,,2013-03-30 17:22:00,
2013-03-30 10:32:00,49.0,40.0,30.16,WNW,301,0.0,-999.0,72,-99.99,,,-99.99,,2013-03-30 17:32:00,
2013-03-30 10:42:00,49.0,40.0,30.16,WNW,301,0.0,-999.0,72,-99.99,,,-99.99,,2013-03-30 17:42:00,
2013-03-30 10:52:00,52.0,41.0,30.16,South,184,1.0,-999.0,67,-99.99,,,-99.99,,2013-03-30 17:52:00,
2013-03-30 11:02:00,55.0,43.0,30.15,SE,146,2.0,-999.0,64,-99.99,,,-99.99,,2013-03-30 18:02:00,
2013-03-30 11:12:00,57.0,43.0,30.14,SE,132,3.0,-999.0,59,-99.99,,,-99.99,,2013-03-30 18:12:00,
2013-03-30 11:21:00,57.0,43.0,30.14,SE,132,3.0,-999.0,59,-99.99,,,-99.99,,2013-03-30 18:21:00,
2013-03-30 11:32:00,59.0,43.0,30.14,East,89,1.0,-999.0,55,-99.99,,,-99.99,,2013-03-30 18:32:00,
2013-03-30 11:42:00,59.0,43.0,30.14,East,89,1.0,-999.0,55,-99.99,,,-99.99,,2013-03-30 18:42:00,
2013-03-30 11:52:00,61.0,44.0,30.14,SE,140,3.0,-999.0,53,-99.99,,,-99.99,,2013-03-30 18:52:00,
2013-03-30 12:02:00,61.0,44.0,30.14,SE,140,3.0,-999.0,53,-99.99,,,-99.99,,2013-03-30 19:02:00,
2013-03-30 12:12:00,61.0,44.0,30.14,SE,140,3.0,-999.0,53,-99.99,,,-99.99,,2013-03-30 19:12:00,
2013-03-30 12:21:00,64.0,44.0,30.16,SE,132,3.0,-999.0,48,-99.99,,,-99.99,,2013-03-30 19:21:00,
2013-03-30 12:32:00,65.0,44.0,30.16,East,94,5.0,-999.0,46,-99.99,,,-99.99,,2013-03-30 19:32:00,
2013-03-30 12:42:00,65.0,44.0,30.16,East,94,5.0,-999.0,46,-99.99,,,-99.99,,2013-03-30 19:42:00,
2013-03-30 12:52:00,66.0,43.0,30.15,NNE,30,4.0,-999.0,43,-99.99,,,-99.99,,2013-03-30 19:52:00,
2013-03-30 13:02:00,66.0,45.0,30.15,NE,39,5.0,-999.0,46,-99.99,,,-99.99,,2013-03-30 20:02:00,
2013-03-30 13:12:00,66.0,45.0,30.15,NE,39,5.0,-999.0,46,-99.99,,,-99.99,,2013-03-30 20:12:00,
2013-03-30 13:21:00,67.0,43.0,30.14,SSW,203,5.0,-999.0,42,-99.99,,,-99.99,,2013-03-30 20:21:00,
2013-03-30 13:32:00,68.0,43.0,30.14,SE,132,4.0,-999.0,41,-99.99,,,-99.99,,2013-03-30 20:32:00,
2013-03-30 13:42:00,68.0,43.0,30.14,SE,132,4.0,-999.0,41,-99.99,,,-99.99,,2013-03-30 20:42:00,
2013-03-30 13:52:00,67.0,42.0,30.13,ESE,119,5.0,-999.0,40,-99.99,,,-99.99,,2013-03-30 20:52:00,
2013-03-30 14:02:00,69.0,43.0,30.13,SE,144,2.0,-999.0,39,-99.99,,,-99.99,,2013-03-30 21:02:00,
2013-03-30 14:12:00,69.0,43.0,30.13,SE,144,2.0,-999.0,39,-99.99,,,-99.99,,2013-03-30 21:12:00,
2013-03-30 14:22:00,71.0,44.0,30.11,SE,138,3.0,-999.0,38,-99.99,,,-99.99,,2013-03-30 21:22:00,
2013-03-30 14:33:00,71.0,43.0,30.11,ESE,119,4.0,-999.0,37,-99.99,,,-99.99,,2013-03-30 21:33:00,
2013-03-30 14:43:00,71.0,43.0,30.11,ESE,119,4.0,-999.0,37,-99.99,,,-99.99,,2013-03-30 21:43:00,
2013-03-30 14:52:00,71.0,43.0,30.11,NNW,343,4.0,-999.0,37,-99.99,,,-99.99,,2013-03-30 21:52:00,
2013-03-30 15:02:00,71.0,43.0,30.10,SE,141,4.0,-999.0,37,-99.99,,,-99.99,,2013-03-30 22:02:00,
2013-03-30 15:12:00,71.0,43.0,30.10,SE,141,4.0,-999.0,37,-99.99,,,-99.99,,2013-03-30 22:12:00,
2013-03-30 15:23:00,72.0,44.0,30.09,South,186,3.0,-999.0,37,-99.99,,,-99.99,,2013-03-30 22:23:00,
2013-03-30 15:32:00,73.0,44.0,30.08,SSE,162,2.0,-999.0,35,-99.99,,,-99.99,,2013-03-30 22:32:00,
2013-03-30 15:43:00,73.0,44.0,30.08,SSE,162,2.0,-999.0,35,-99.99,,,-99.99,,2013-03-30 22:43:00,
2013-03-30 15:53:00,74.0,44.0,30.08,NE,39,3.0,-999.0,34,-99.99,,,-99.99,,2013-03-30 22:53:00,
2013-03-30 16:02:00,74.0,45.0,30.07,ENE,65,4.0,-999.0,36,-99.99,,,-99.99,,2013-03-30 23:02:00,
2013-03-30 16:22:00,77.0,44.0,30.06,ESE,107,3.0,-999.0,31,-99.99,,,-99.99,,2013-03-30 23:22:00,
2013-03-30 16:32:00,77.0,44.0,30.05,SE,134,4.0,-999.0,31,-99.99,,,-99.99,,2013-03-30 23:32:00,
2013-03-30 17:02:00,78.0,42.0,30.04,SE,132,3.0,-999.0,28,-99.99,,,-99.99,,2013-03-31 00:02:00,
2013-03-30 17:22:00,76.0,42.0,30.04,SE,145,2.0,-999.0,30,-99.99,,,-99.99,,2013-03-31 00:22:00,
2013-03-30 17:32:00,73.0,41.0,30.04,SSE,148,3.0,-999.0,31,-99.99,,,-99.99,,2013-03-31 00:32:00,
2013-03-30 17:42:00,73.0,41.0,30.04,SSE,148,3.0,-999.0,31,-99.99,,,-99.99,,2013-03-31 00:42:00,
2013-03-30 17:52:00,71.0,42.0,30.04,SSE,160,5.0,-999.0,35,-99.99,,,-99.99,,2013-03-31 00:52:00,
2013-03-30 18:02:00,70.0,41.0,30.04,SSE,158,2.0,-999.0,35,-99.99,,,-99.99,,2013-03-31 01:02:00,
2013-03-30 18:12:00,70.0,41.0,30.04,SSE,158,2.0,-999.0,35,-99.99,,,-99.99,,2013-03-31 01:12:00,
2013-03-30 18:22:00,69.0,40.0,30.04,ESE,118,2.0,-999.0,35,-99.99,,,-99.99,,2013-03-31 01:22:00,
2013-03-30 18:32:00,68.0,41.0,30.04,ESE,107,1.0,-999.0,38,-99.99,,,-99.99,,2013-03-31 01:32:00,
2013-03-30 18:42:00,68.0,41.0,30.04,ESE,107,1.0,-999.0,38,-99.99,,,-99.99,,2013-03-31 01:42:00,
2013-03-30 18:52:00,67.0,43.0,30.01,SE,126,1.0,-999.0,42,-99.99,,,-99.99,,2013-03-31 01:52:00,
2013-03-30 19:02:00,65.0,42.0,30.01,SE,146,0.0,-999.0,43,-99.99,,,-99.99,,2013-03-31 02:02:00,
2013-03-30 19:12:00,65.0,42.0,30.01,SE,146,0.0,-999.0,43,-99.99,,,-99.99,,2013-03-31 02:12:00,
2013-03-30 19:21:00,63.0,42.0,30.01,SE,146,0.0,-999.0,47,-99.99,,,-99.99,,2013-03-31 02:21:00,
2013-03-30 19:32:00,61.0,44.0,30.01,SE,146,0.0,-999.0,53,-99.99,,,-99.99,,2013-03-31 02:32:00,
2013-03-30 19:42:00,61.0,44.0,30.01,SE,146,0.0,-999.0,53,-99.99,,,-99.99,,2013-03-31 02:42:00,
2013-03-30 19:52:00,57.0,45.0,30.02,SE,146,0.0,-999.0,64,-99.99,,,-99.99,,2013-03-31 02:52:00,
2013-03-30 20:02:00,56.0,45.0,30.02,SE,146,0.0,-999.0,67,-99.99,,,-99.99,,2013-03-31 03:02:00,
2013-03-30 20:12:00,56.0,45.0,30.02,SE,146,0.0,-999.0,67,-99.99,,,-99.99,,2013-03-31 03:12:00,
2013-03-30 20:21:00,55.0,45.0,30.03,SE,146,0.0,-999.0,69,-99.99,,,-99.99,,2013-03-31 03:21:00,
2013-03-30 20:32:00,55.0,45.0,30.03,SE,146,0.0,-999.0,69,-99.99,,,-99.99,,2013-03-31 03:32:00,
2013-03-30 20:43:00,55.0,45.0,30.03,SE,146,0.0,-999.0,69,-99.99,,,-99.99,,2013-03-31 03:43:00,
2013-03-30 20:53:00,52.0,43.0,30.03,SE,146,0.0,-999.0,72,-99.99,,,-99.99,,2013-03-31 03:53:00,
2013-03-30 21:02:00,50.0,-99.9,30.03,SE,146,0.0,-999.0,73,-99.99,,,-99.99,,2013-03-31 04:02:00,
2013-03-30 21:12:00,50.0,42.0,30.03,SE,146,0.0,-999.0,73,-99.99,,,-99.99,,2013-03-31 04:12:00,
2013-03-30 21:22:00,47.0,41.0,30.04,SE,146,0.0,-999.0,79,-99.99,,,-99.99,,2013-03-31 04:22:00,
2013-03-30 21:32:00,46.0,41.0,30.05,SE,146,0.0,-999.0,81,-99.99,,,-99.99,,2013-03-31 04:32:00,
2013-03-30 21:42:00,46.0,41.0,30.05,SE,146,0.0,-999.0,81,-99.99,,,-99.99,,2013-03-31 04:42:00,
2013-03-30 21:52:00,45.0,40.0,30.03,SE,146,0.0,-999.0,82,-99.99,,,-99.99,,2013-03-31 04:52:00,
2013-03-30 22:02:00,44.0,39.0,30.03,SE,146,0.0,-999.0,83,-99.99,,,-99.99,,2013-03-31 05:02:00,
2013-03-30 22:12:00,44.0,39.0,30.03,SE,146,0.0,-999.0,83,-99.99,,,-99.99,,2013-03-31 05:12:00,
2013-03-30 22:22:00,43.0,38.0,30.04,SE,146,0.0,-999.0,83,-99.99,,,-99.99,,2013-03-31 05:22:00,
2013-03-30 22:32:00,42.0,38.0,30.04,SE,146,0.0,-999.0,84,-99.99,,,-99.99,,2013-03-31 05:32:00,
2013-03-30 22:42:00,42.0,38.0,30.04,SE,146,0.0,-999.0,84,-99.99,,,-99.99,,2013-03-31 05:42:00,
2013-03-30 22:52:00,41.0,37.0,30.05,SE,146,0.0,-999.0,85,-99.99,,,-99.99,,2013-03-31 05:52:00,
2013-03-30 23:01:00,41.0,37.0,30.06,SE,146,0.0,-999.0,86,-99.99,,,-99.99,,2013-03-31 06:01:00,
2013-03-30 23:11:00,41.0,37.0,30.06,SE,146,0.0,-999.0,86,-99.99,,,-99.99,,2013-03-31 06:11:00,
2013-03-30 23:22:00,40.0,36.0,30.03,SE,146,0.0,-999.0,87,-99.99,,,-99.99,,2013-03-31 06:22:00,
2013-03-30 23:32:00,40.0,36.0,30.03,SE,146,0.0,-999.0,85,-99.99,,,-99.99,,2013-03-31 06:32:00,
2013-03-30 23:42:00,40.0,36.0,30.03,SE,146,0.0,-999.0,85,-99.99,,,-99.99,,2013-03-31 06:42:00,
2013-03-30 23:52:00,39.0,35.0,30.04,SE,146,0.0,-999.0,87,-99.99,,,-99.99,,2013-03-31 06:52:00,